Weather History for Big Piney, WY

Change the Weather History Date:

Sunday, May 12, 2013

  Actual Average Record
Temperature  
Mean Temperature 57 °F 45 °F  
Max Temperature 76 °F 60 °F 79 °F (2007)
Min Temperature 37 °F 29 °F 15 °F (1999)
Degree Days  
Heating Degree Days 8 20  
Month to date heating degree days 249 265  
Since 1 July heating degree days 9156 9796  
Cooling Degree Days 0 0  
Month to date cooling degree days 0 0  
Year to date cooling degree days 0 0  
Growing Degree Days 7 (Base 50)    
Moisture  
Dew Point 31 °F    
Average Humidity 47    
Maximum Humidity 76    
Minimum Humidity 18    
Precipitation  
Precipitation 0.00 in 0.02 in 0.14 in (1980)
Month to date precipitation 0.53 0.30  
Year to date precipitation 0.97 1.93  
Sea Level Pressure  
Sea Level Pressure 30.10 in    
Wind  
Wind Speed 8 mph (NNW)    
Max Wind Speed 24 mph    
Max Gust Speed 30 mph    
Visibility 10 miles    
Events      
T = Trace of Precipitation, MM = Missing Value Source: NWS Daily Summary

Daily Weather History Graph

Daily Weather History Graph

Search for Another Location

Airport:

Trip Planner

Search our weather history database for the weather conditions in past years. The results will help you decide how hot, cold, wet, or windy it might be!

Date:

Astronomy

May. 12, 2013 Rise Set
Actual Time 6:01 AM MDT 8:33 PM MDT
Civil Twilight 5:29 AM MDT 9:05 PM MDT
Nautical Twilight 4:49 AM MDT 9:45 PM MDT
Astronomical Twilight 4:04 AM MDT 10:30 PM MDT
Moon 7:58 AM MDT (5/12) 11:03 PM MDT (5/12)
Length of Visible Light 15h 35m
Length of Day
14h 31m
Waxing Crescent, 7% of the Moon is Illuminated
May 12
Waxing Crescent
May 17
First Quarter
May 24
Full
May 31
Last Quarter
Jun 8
New

Hourly Weather History & Observations

Time (MDT) Temp. Windchill Dew Point Humidity Pressure Visibility Wind Dir Wind Speed Gust Speed Precip Events Conditions
12:53 AM 46.9 °F - 32.0 °F 56% 30.15 in 10.0 mi North 11.5 mph - N/A   Partly Cloudy
1:53 AM 48.9 °F - 30.0 °F 48% 30.14 in 10.0 mi Variable 3.5 mph - N/A   Clear
2:53 AM 42.1 °F 39.2 °F 30.0 °F 62% 30.16 in 10.0 mi NW 4.6 mph - N/A   Clear
3:53 AM 39.9 °F 35.8 °F 30.0 °F 68% 30.15 in 10.0 mi ENE 5.8 mph - N/A   Partly Cloudy
4:53 AM 41.0 °F 38.0 °F 30.9 °F 67% 30.17 in 10.0 mi East 4.6 mph - N/A   Overcast
5:53 AM 39.9 °F - 32.0 °F 73% 30.17 in 10.0 mi Calm Calm - N/A   Overcast
6:53 AM 39.9 °F - 32.0 °F 73% 30.19 in 10.0 mi Calm Calm - N/A   Scattered Clouds
7:53 AM 48.0 °F - 33.1 °F 56% 30.17 in 10.0 mi Calm Calm - N/A   Clear
8:53 AM 57.0 °F - 33.1 °F 40% 30.17 in 10.0 mi East 3.5 mph - N/A   Clear
9:53 AM 62.1 °F - 32.0 °F 32% 30.16 in 10.0 mi Variable 3.5 mph - N/A   Clear
10:53 AM 66.0 °F - 32.0 °F 28% 30.12 in 10.0 mi Variable 3.5 mph - N/A   Clear
11:53 AM 71.1 °F - 28.0 °F 20% 30.08 in 10.0 mi WNW 9.2 mph - N/A   Partly Cloudy
12:53 PM 73.9 °F - 28.9 °F 19% 30.06 in 10.0 mi North 17.3 mph 23.0 mph N/A   Clear
1:53 PM 73.9 °F - 28.9 °F 19% 30.06 in 10.0 mi NW 12.7 mph 27.6 mph N/A   Partly Cloudy
2:53 PM 75.0 °F - 28.9 °F 18% 30.07 in 10.0 mi NNW 18.4 mph 25.3 mph N/A   Clear
3:53 PM 73.9 °F - 30.0 °F 20% 30.07 in 10.0 mi NW 17.3 mph 25.3 mph N/A   Clear
4:53 PM 75.0 °F - 30.9 °F 20% 30.05 in 10.0 mi NW 16.1 mph 26.5 mph N/A   Clear
5:53 PM 73.9 °F - 30.0 °F 20% 30.04 in 10.0 mi NNW 21.9 mph 26.5 mph N/A   Clear
6:53 PM 72.0 °F - 30.0 °F 21% 30.05 in 10.0 mi NNW 19.6 mph - N/A   Clear
7:53 PM 66.0 °F - 32.0 °F 28% 30.04 in 10.0 mi NNW 12.7 mph - N/A   Clear
8:53 PM 55.0 °F - 33.1 °F 43% 30.06 in 10.0 mi NNW 8.1 mph - N/A   Clear
9:53 PM 52.0 °F - 34.0 °F 50% 30.06 in 10.0 mi North 10.4 mph - N/A   Clear
10:53 PM 51.1 °F - 34.0 °F 52% 30.06 in 10.0 mi Variable 5.8 mph - N/A   Clear
11:53 PM 52.0 °F - 33.1 °F 49% 30.05 in 10.0 mi Calm Calm - N/A   Clear